Voltar ao catálogo

STARLINK-5442

AtivoComunicaçõesVLEO
NORAD 54784·PAYLOAD·🇺🇸 United States

Lançado Dec 17, 2022 de Cape Canaveral Space Force Station

Loading…

Próximas Passagens (próximas 24 horas)

TLE

AtualizadoSource: CelesTrak SupGP

Época: Sep 15, 2026, 03:02 UTC

1 54784C 22175AC  26258.12687500 -.00029904  00000+0 -88352-3 0  2589
2 54784  53.1601 262.9813 0001288  87.5149 200.2212 15.34405774    10

Acompanhe STARLINK-5442 em tempo real com AllMySat

Download on the App Store